Starlink 3856

operational
NORAD ID: 52459 Int'l Des: 2022-049 Owner: SPXS Country: US Constellation: starlink
LEOCIRCULAR

Über Starlink 3856

Beschreibung wird geladen...

Live-Position

3D-Globus wird geladen...

Nächste Überflüge

Höhenverlauf

Altitude vs Time

uPlot chart will show altitude changes over time

Zweizeiliger Elementsatz

1 52459U 22049J 25304.64040029 .00007641 00000-0 49765-3 0 9993
2 52459 53.2162 278.4452 0001328 86.0644 274.0500 15.08838097192762
Epoch: 31. Okt. 2025 • Age: 17 hours

Aktueller Status

Höhe 558.8 km
Geschwindigkeit 7.58 km/s
Subsatellitenpunkt -52.37°S, 2.81°E
Startdatum 6. Mai 2022
Alter 3.4 years
Typ internet

Technische Details

Klassifizierung Payload
Masse 297.00 kg
Trockenmasse 220.00 kg
Gesamtmasse 297.00 kg
Länge 0.20 m
Durchmesser 2.80 m
Spannweite 9.00 m
Form Box + pan
Hersteller SPXS
Bus-Typ Starlink
Phasenstatus In Orbit
Besitzer/Staat SPXS/US

Große Konstellationen

Loading constellations...